カタログに戻る

FENGYUN 1C DEB

運用中SSO
NORAD 37691·DEBRIS·🇨🇳 China

打ち上げ May 10, 1999 から Taiyuan Satellite Launch Center

Loading…

次のパス (今後24時間)

TLE

経年Source: Space-Track

元期: Sep 10, 2026, 00:36 UTC

1 37691U 99025ELG 26253.02563361  .00020576  00000-0  22865-2 0  9990
2 37691  98.3563 165.7573 0251284  23.5229 337.7233 14.66899572896009

AllMySatでFENGYUN 1C DEBをリアルタイム追跡

Download on the App Store